Погода в Боле

Хорватия     43°15′43″N   16°39′10″E
темп.,
°C
ветер,
м/с
пор.,
м/с
влажн.,
%
обл.,
%
осадки,
мм/ч
давл.,
гПа
погр.,
м
17 августа, ср
ср1723:00+22вюв22850 0.0 101463
02:00+21св22780 0.0 101347
05:00+21св22730 0.0 101337
08:00+23св22630 0.0 1014145
11:00+28ю12480 0.0 1014629
14:00+29зюз34520 0.0 1013807
17:00+28зсз23530 0.0 1013450
20:00+24сз33690 0.0 101338
18 августа, чт
чт1823:00+23ссв22700 0.0 101311
02:00+23св11700 0.0 101211
05:00+22всв33680 0.0 101237
08:00+25в23590 0.0 1012129
11:00+29ююв22472 0.0 1013395
14:00+30вюв324210 0.0 1012466
17:00+28в33481 0.0 1010257
20:00+26св33503 0.1 100928
19 августа, пт
пт1923:00+24всв33580 0.3 101040
02:00+25всв46561 0.3 100873
05:00+24сз325735 0.0 100929
08:00+27всв475162 0.0 1008161
11:00+27ююв5125374 0.0 1009510
14:00+24вюв448991 0.0 1009156
17:00+28юв35610 0.0 1008524
20:00+23вюв11860 0.0 100820
20 августа, сб
сб2023:00+24св33770 0.0 100928
02:00+22ссв11746 0.0 100913
05:00+22с22725 0.0 100929
08:00+24ссз11615 0.3 1010140
11:00+28юз22535 0.3 10111076
14:00+29з44535 0.4 10101403
17:00+27зсз56590 0.0 1010784
20:00+23зсз45810 0.0 1010146
21 августа, вс
вс2123:00+23с33750 0.0 101048
02:00+22ссв45730 0.0 1010105
05:00+22ссв512690 0.0 1010439
08:00+25ссв59590 0.0 1010503
11:00+29ссв45430 0.0 10101077
14:00+30сз67415 0.0 10081541
17:00+30ссз46410 0.0 10071415
20:00+26с812470 0.0 1007659